カタログに戻る

STARLINK-35746

運用中通信VLEO
NORAD 66582·PAYLOAD·🇺🇸 United States

打ち上げ Nov 21, 2025 から Cape Canaveral Space Force Station

Loading…

次のパス (今後24時間)

TLE

最新Source: CelesTrak SupGP

元期: Sep 14, 2026, 22:54 UTC

1 66582C 25268AB  26257.95465278 -.00019598  00000+0 -70975-3 0  2579
2 66582  43.0034 357.9198 0001625 272.0180 263.1512 15.27591624    12

AllMySatでSTARLINK-35746をリアルタイム追跡

Download on the App Store